User: anonymous   Login
Location: Augirein
(42.9320°N, 0.9181°E)
Time: 06:37:22
(UTC+00:00)
Language:

NOAA 16 DEB - Orbit

View from above orbital plane
View from above orbital plane
View from above satellite
View from above satellite

Ground track
Ground track

The orbit data is extracted from the following two-line orbital elements,

1 41505U 00055MD  22028.07178037  .00001214  00000-0  60524-3 0  9990
2 41505  98.8268 121.4332 0046185  86.9192 273.7266 14.18220057309266
Epoch (UTC): 28 January 2022 01:43:21
Eccentricity: 0.0046185
inclination: 98.8268°
perigee height: 798 km
apogee height: 864 km
right ascension of ascending node: 121.4332°
argument of perigee: 86.9192°
revolutions per day: 14.18220057
mean anomaly at epoch: 273.7266°
orbit number at epoch: 30926

The dashed part of the orbit path shows where the satellite is in the earth's shadow,  

DLR